Location: Boiro
(42.6475°N, 8.8834°W)
Time: 16:04:52
(UTC+02:00)

Explorer 7 - Pass Details

Date: 04 July 2022
Orbit: 482 x 668 km, 50.3° (Epoch: 15 August)

Event Time Altitude Azimuth Distance (km) Brightness Sun altitude
Rises 23:48:50 0° 240° (WSW) 2,985 10.7 -13.6°
Reaches altitude 10° 23:51:10 10° 241° (WSW) 2,084 9.9 -13.8°
Maximum altitude 23:56:01 84° 330° (NNW) 676 7.3 -14.4°
Drops below altitude 10° 00:00:52 10° 59° (ENE) 2,081 9.7 -15.0°
Sets 00:03:12 0° 60° (ENE) 2,980 10.5 -15.2°
